Zurück zum Katalog

STARLINK-38152

AktivKommunikationSSO
NORAD 100157·PAYLOAD·🇺🇸 United States

Gestartet Jul 25, 2026 von Vandenberg Space Force Base

Loading…

Nächste Überflüge (nächste 24 Stunden)

TLE

AktuellSource: Space-Track

Epoche: Sep 14, 2026, 08:19 UTC

1 A0157U 26171K   26257.34666956  .00012335  00000-0  34288-3 0  9999
2 A0157  97.2830 289.8861 0001392 102.7631 257.3769 15.36997750  7953

Verfolge STARLINK-38152 in Echtzeit mit AllMySat

Download on the App Store